TimeCDT,TemperatureF,Dew PointF,Humidity,Sea Level PressureIn,VisibilityMPH,Wind Direction,Wind SpeedMPH,Gust SpeedMPH,PrecipitationIn,Events,Conditions,WindDirDegrees,DateUTC
12:13 AM,64.4,44.6,49,29.76,10.0,NW,12.7,20.7,N/A,,Clear,310,2013-05-15 05:13:00
12:33 AM,64.4,44.6,49,29.77,10.0,NW,18.4,25.3,N/A,,Clear,310,2013-05-15 05:33:00
12:52 AM,62.6,44.6,52,29.78,10.0,NW,17.3,24.2,N/A,,Clear,320,2013-05-15 05:52:00
1:13 AM,62.6,44.6,52,29.79,10.0,NW,15.0,-,N/A,,Scattered Clouds,320,2013-05-15 06:13:00
1:33 AM,60.8,42.8,52,29.80,10.0,NW,13.8,23.0,N/A,,Scattered Clouds,320,2013-05-15 06:33:00
1:52 AM,60.8,44.6,55,29.80,10.0,NNW,9.2,-,N/A,,Clear,330,2013-05-15 06:52:00
2:13 AM,59.0,44.6,59,29.81,10.0,NNW,12.7,17.3,N/A,,Clear,330,2013-05-15 07:13:00
2:33 AM,57.2,44.6,63,29.81,10.0,NNW,11.5,-,N/A,,Scattered Clouds,330,2013-05-15 07:33:00
2:52 AM,57.2,44.6,63,29.82,10.0,NNW,9.2,-,N/A,,Scattered Clouds,340,2013-05-15 07:52:00
3:13 AM,55.4,44.6,67,29.82,10.0,NNW,9.2,-,N/A,,Scattered Clouds,330,2013-05-15 08:13:00
3:33 AM,55.4,42.8,63,29.83,10.0,NW,6.9,-,N/A,,Scattered Clouds,320,2013-05-15 08:33:00
3:52 AM,53.6,42.8,67,29.83,10.0,NNW,5.8,-,N/A,,Scattered Clouds,330,2013-05-15 08:52:00
4:13 AM,53.6,42.8,67,29.84,10.0,NW,4.6,-,N/A,,Scattered Clouds,320,2013-05-15 09:13:00
4:33 AM,55.4,42.8,63,29.85,10.0,WNW,5.8,-,N/A,,Scattered Clouds,290,2013-05-15 09:33:00
4:52 AM,51.8,44.6,76,29.86,10.0,WSW,3.5,-,N/A,,Clear,240,2013-05-15 09:52:00
5:13 AM,51.8,42.8,71,29.87,10.0,WSW,5.8,-,N/A,,Clear,250,2013-05-15 10:13:00
5:33 AM,51.8,42.8,71,29.89,10.0,WSW,4.6,-,N/A,,Scattered Clouds,250,2013-05-15 10:33:00
5:52 AM,53.6,42.8,67,29.89,10.0,WSW,4.6,-,N/A,,Clear,250,2013-05-15 10:52:00
6:13 AM,53.6,44.6,72,29.89,10.0,Calm,Calm,-,N/A,,Clear,0,2013-05-15 11:13:00
6:32 AM,53.6,44.6,72,29.91,10.0,WNW,5.8,-,N/A,,Unknown,300,2013-05-15 11:32:00
6:53 AM,57.2,44.6,63,29.93,10.0,West,6.9,-,N/A,,Unknown,280,2013-05-15 11:53:00
7:13 AM,57.2,44.6,63,29.94,10.0,West,4.6,-,N/A,,Unknown,280,2013-05-15 12:13:00
7:32 AM,57.2,44.6,63,29.93,10.0,WNW,5.8,-,N/A,,Clear,290,2013-05-15 12:32:00
7:53 AM,57.2,44.6,63,29.93,10.0,Calm,Calm,-,N/A,,Clear,0,2013-05-15 12:53:00
8:13 AM,59.0,44.6,59,29.92,10.0,Calm,Calm,-,N/A,,Clear,0,2013-05-15 13:13:00
8:32 AM,59.0,46.4,63,29.92,10.0,Calm,Calm,-,N/A,,Clear,0,2013-05-15 13:32:00
8:53 AM,60.8,44.6,55,29.91,10.0,Calm,Calm,-,N/A,,Clear,0,2013-05-15 13:53:00
9:13 AM,60.8,46.4,59,29.91,10.0,Calm,Calm,-,N/A,,Unknown,0,2013-05-15 14:13:00
9:32 AM,60.8,44.6,55,29.92,10.0,Calm,Calm,-,N/A,,Unknown,0,2013-05-15 14:32:00
9:53 AM,62.6,44.6,52,29.92,10.0,Calm,Calm,-,N/A,,Unknown,0,2013-05-15 14:53:00
10:13 AM,62.6,44.6,52,29.92,10.0,Calm,Calm,-,N/A,,Clear,0,2013-05-15 15:13:00
10:32 AM,64.4,42.8,45,29.91,10.0,Calm,Calm,-,N/A,,Clear,0,2013-05-15 15:32:00
10:53 AM,68.0,42.8,40,29.92,10.0,Calm,Calm,-,N/A,,Clear,0,2013-05-15 15:53:00
11:13 AM,69.8,42.8,38,29.92,10.0,SW,5.8,-,N/A,,Clear,230,2013-05-15 16:13:00
11:32 AM,68.0,44.6,43,29.92,10.0,WSW,6.9,-,N/A,,Clear,240,2013-05-15 16:32:00
11:53 AM,69.8,42.8,38,29.92,10.0,WSW,6.9,-,N/A,,Clear,250,2013-05-15 16:53:00
12:13 PM,71.6,42.8,35,29.92,10.0,WSW,6.9,-,N/A,,Clear,240,2013-05-15 17:13:00
12:32 PM,71.6,41.0,33,29.91,10.0,West,8.1,-,N/A,,Clear,260,2013-05-15 17:32:00
12:53 PM,73.4,41.0,31,29.90,10.0,SW,8.1,-,N/A,,Clear,220,2013-05-15 17:53:00
1:13 PM,75.2,41.0,29,29.89,10.0,SW,5.8,18.4,N/A,,Clear,230,2013-05-15 18:13:00
1:32 PM,75.2,42.8,31,29.89,10.0,WSW,9.2,-,N/A,,Clear,250,2013-05-15 18:32:00
1:53 PM,75.2,42.8,31,29.89,10.0,WNW,8.1,-,N/A,,Clear,300,2013-05-15 18:53:00
2:13 PM,77.0,42.8,29,29.88,10.0,West,3.5,-,N/A,,Clear,270,2013-05-15 19:13:00
2:32 PM,77.0,42.8,29,29.87,10.0,WNW,9.2,-,N/A,,Clear,290,2013-05-15 19:32:00
2:53 PM,77.0,42.8,29,29.86,10.0,West,6.9,-,N/A,,Clear,260,2013-05-15 19:53:00
3:13 PM,78.8,42.8,28,29.86,10.0,WNW,8.1,17.3,N/A,,Clear,290,2013-05-15 20:13:00
3:32 PM,80.6,42.8,26,29.85,10.0,West,11.5,18.4,N/A,,Clear,280,2013-05-15 20:32:00
3:53 PM,78.8,42.8,28,29.84,10.0,West,5.8,-,N/A,,Clear,270,2013-05-15 20:53:00
4:13 PM,78.8,44.6,30,29.83,10.0,Calm,Calm,-,N/A,,Clear,0,2013-05-15 21:13:00
4:32 PM,80.6,42.8,26,29.83,10.0,SW,9.2,18.4,N/A,,Scattered Clouds,230,2013-05-15 21:32:00
4:53 PM,80.6,44.6,28,29.83,10.0,WSW,5.8,10.4,N/A,,Scattered Clouds,240,2013-05-15 21:53:00
5:12 PM,80.6,44.6,28,29.83,10.0,SW,8.1,-,N/A,,Scattered Clouds,230,2013-05-15 22:12:00
5:33 PM,80.6,46.4,30,29.83,10.0,WSW,8.1,17.3,N/A,,Scattered Clouds,250,2013-05-15 22:33:00
5:53 PM,78.8,46.4,32,29.83,10.0,WSW,9.2,19.6,N/A,,Scattered Clouds,250,2013-05-15 22:53:00
6:12 PM,78.8,46.4,32,29.83,10.0,WSW,12.7,19.6,N/A,,Clear,250,2013-05-15 23:12:00
6:33 PM,78.8,46.4,32,29.83,10.0,WSW,10.4,17.3,N/A,,Clear,250,2013-05-15 23:33:00
6:53 PM,78.8,46.4,32,29.82,10.0,SW,6.9,16.1,N/A,,Clear,230,2013-05-15 23:53:00
7:12 PM,78.8,44.6,30,29.82,10.0,WSW,8.1,-,N/A,,Clear,240,2013-05-16 00:12:00
7:33 PM,78.8,44.6,30,29.82,10.0,SW,6.9,-,N/A,,Clear,230,2013-05-16 00:33:00
7:53 PM,75.2,46.4,36,29.82,10.0,SW,5.8,-,N/A,,Clear,230,2013-05-16 00:53:00
8:12 PM,75.2,46.4,36,29.82,10.0,SW,5.8,-,N/A,,Clear,220,2013-05-16 01:12:00
8:33 PM,73.4,46.4,38,29.82,10.0,SW,3.5,-,N/A,,Clear,230,2013-05-16 01:33:00
8:53 PM,71.6,44.6,38,29.82,10.0,Calm,Calm,-,N/A,,Clear,0,2013-05-16 01:53:00
9:13 PM,69.8,44.6,40,29.83,10.0,Calm,Calm,-,N/A,,Clear,0,2013-05-16 02:13:00
9:32 PM,69.8,44.6,40,29.83,10.0,Calm,Calm,-,N/A,,Scattered Clouds,0,2013-05-16 02:32:00
9:53 PM,68.0,44.6,43,29.83,10.0,Calm,Calm,-,N/A,,Clear,0,2013-05-16 02:53:00
10:13 PM,66.2,44.6,46,29.84,10.0,Calm,Calm,-,N/A,,Unknown,0,2013-05-16 03:13:00
10:32 PM,64.4,44.6,49,29.84,10.0,Calm,Calm,-,N/A,,Unknown,0,2013-05-16 03:32:00
10:53 PM,64.4,44.6,49,29.84,10.0,SW,3.5,-,N/A,,Unknown,230,2013-05-16 03:53:00
11:12 PM,64.4,42.8,45,29.84,10.0,SW,3.5,-,N/A,,Unknown,230,2013-05-16 04:12:00
11:53 PM,64.4,44.6,49,29.85,10.0,WSW,5.8,-,N/A,,Unknown,240,2013-05-16 04:53:00